Temp
14 13 13 12 13 11 12 12 12 11 11 11 10 12 12 12 12 12 10 12 13 12 13 13 13 13 13 13 13 13 13 13 12 12 12 13 13 13 13 13 12 13 12
13 13 13 12 12 10 11 12 11 11 10 10 11 11 12 12 11 12 12 12 11 12 11 13 12 12 12 12 12 13 12 12 12 12 12 12 12 12 13 13 13 12 12
13 13 13 13 12 10 10 11 10 10 10 10 10 11 11 11 11 12 11 12 13 12 12 11 12 12 12 12 12 12 12 12 12 12 12 12 12 12 12 12 12 12 12
13 13 12 13 12 10 10 9 10 10 9 9 9 10 11 11 11 11 11 11 11 12 12 12 12 12 12 11 12 11 11 12 12 12 12 12 12 12 12 12 12 12 11
14 13 13 13 11 10 10 10 9 10 10 9 9 9 9 10 11 11 11 11 11 11 11 11 11 12 11 11 12 11 11 11 11 11 11 11 11 11 12 12 12 11 11
12 13 13 13 12 10 10 10 10 8 10 10 9 8 9 9 10 10 11 11 11 11 11 11 11 11 11 11 11 11 11 11 11 11 11 11 11 11 11 11 11 11 10
12 13 13 12 12 11 10 9 9 9 8 9 9 8 8 8 9 9 11 11 11 10 11 12 11 11 11 11 11 11 11 11 11 11 10 10 10 10 10 10 10 10 10
11 11 11 11 12 10 10 9 9 8 8 8 9 9 7 7 8 9 10 10 11 10 11 11 11 11 11 11 11 11 11 11 10 11 10 10 10 10 10 10 10 10 10
13 13 12 11 12 9 10 11 10 10 10 9 9 11 8 9 9 9 10 10 11 11 10 11 11 11 10 11 11 11 11 11 10 10 10 10 10 9 9 9 9 9 9
12 12 12 11 12 10 9 10 11 11 11 11 9 11 12 12 10 10 9 10 11 10 11 11 11 11 11 10 11 11 11 11 10 10 10 10 10 9 9 9 9 9 9
12 11 11 11 11 14 11 10 10 10 11 11 11 11 11 12 13 13 12 11 11 11 11 11 11 11 11 11 11 11 10 10 10 10 9 9 9 9 9 9 8 8 8
11 11 11 11 11 11 12 12 11 12 12 11 12 12 12 13 13 13 13 13 13 12 12 11 12 12 11 11 11 10 10 10 10 10 9 9 9 9 9 9 8 8 8
11 10 10 10 10 10 11 12 12 12 12 11 12 12 11 11 13 13 13 13 12 12 12 12 12 12 11 11 11 10 10 10 10 10 9 9 9 9 8 8 8 8 8
11 11 10 10 10 11 9 12 12 11 12 11 11 12 11 11 12 12 13 13 12 12 12 12 12 12 11 11 11 10 10 10 10 9 9 9 9 8 8 8 8 8 7
10 10 10 10 10 9 10 10 12 12 11 10 11 11 11 10 11 12 12 12 12 12 12 12 12 12 11 11 11 10 10 10 9 9 9 9 9 8 8 8 8 8 7
10 10 10 10 10 9 9 10 10 10 11 11 10 11 10 10 10 11 11 11 12 12 13 12 12 12 11 11 11 10 10 10 9 9 9 9 8 8 8 8 7 7 7
10 10 10 10 10 10 10 9 9 9 9 11 11 11 11 10 10 10 11 11 11 11 12 12 11 11 11 11 10 10 10 10 9 9 9 9 8 8 8 7 7 7 6
9 10 10 10 10 10 9 9 8 8 9 11 11 11 11 10 10 10 10 10 10 11 11 11 11 11 10 10 10 10 9 9 9 9 8 8 8 8 7 7 7 6 6
9 9 9 9 9 9 9 8 8 8 9 9 9 9 10 10 10 10 10 10 10 10 10 10 10 10 10 9 9 9 9 9 8 8 8 8 8 7 7 7 6 5 5
9 9 9 9 9 9 8 8 8 8 8 7 8 8 9 10 10 10 10 10 10 10 10 10 9 9 9 9 9 9 8 8 8 7 7 7 7 7 6 6 5 5 4
9 9 9 9 9 8 8 8 7 7 7 7 7 7 8 9 10 10 10 10 10 9 9 9 9 9 9 8 8 8 7 7 7 7 7 6 6 6 5 5 4 4 4
8 8 8 8 8 7 7 7 7 6 6 7 6 6 7 8 9 9 9 9 9 9 9 9 9 8 8 8 8 7 6 6 6 6 6 6 5 5 5 4 4 4 3
8 7 7 7 7 7 7 6 6 6 6 6 5 6 8 8 8 8 9 9 8 8 8 8 8 9 7 8 6 6 5 5 5 5 4 5 5 5 4 4 3 3 2
7 7 6 6 6 6 6 6 5 4 5 5 5 6 7 8 9 10 9 9 9 8 8 8 8 7 7 6 6 5 5 5 5 4 3 3 4 4 4 3 3 2 1
6 6 6 6 5 5 5 5 4 4 5 5 5 6 7 8 8 8 8 9 8 8 8 7 6 6 7 6 5 5 5 4 3 3 2 2 2 2 2 3 3 1 1
4 5 5 5 5 5 5 5 4 4 5 5 6 6 7 7 7 8 8 7 8 9 7 7 7 7 7 6 5 5 4 3 2 1 2 1 1 -0 -0 1 2 1 1
Height
1518 1522 1525 1529 1533 1538 1543 1547 1552 1556 1560 1562 1566 1569 1572 1575 1577 1578 1579 1581 1583 1585 1587 1588 1589 1590 1591 1591 1591 1591 1591 1591 1591 1590 1590 1590 1589 1588 1588 1587 1586 1586 1584
1514 1519 1523 1527 1531 1537 1540 1545 1551 1555 1559 1561 1564 1569 1572 1574 1578 1580 1580 1582 1584 1586 1587 1588 1590 1591 1592 1592 1592 1592 1592 1592 1592 1592 1591 1590 1590 1589 1589 1588 1588 1588 1586
1509 1514 1519 1523 1529 1535 1538 1543 1549 1554 1558 1561 1564 1568 1572 1575 1578 1580 1582 1583 1585 1586 1588 1589 1590 1591 1593 1594 1594 1593 1593 1593 1593 1593 1592 1592 1591 1590 1590 1588 1588 1588 1587
1503 1509 1515 1520 1526 1532 1536 1540 1545 1550 1555 1560 1563 1567 1572 1574 1577 1580 1582 1584 1587 1588 1588 1589 1590 1591 1593 1594 1594 1594 1593 1593 1593 1594 1593 1593 1592 1591 1590 1589 1588 1587 1586
1493 1501 1509 1516 1522 1527 1533 1537 1543 1548 1551 1558 1562 1567 1571 1574 1576 1579 1581 1584 1587 1588 1590 1591 1592 1592 1593 1595 1595 1595 1595 1594 1594 1595 1595 1593 1592 1591 1590 1589 1587 1586 1585
1484 1493 1501 1509 1516 1522 1528 1534 1540 1546 1551 1554 1559 1566 1571 1574 1576 1579 1580 1582 1586 1589 1590 1592 1593 1592 1593 1595 1595 1595 1595 1595 1594 1594 1594 1593 1592 1591 1590 1588 1586 1585 1583
1484 1482 1492 1500 1508 1517 1523 1531 1536 1541 1549 1553 1556 1564 1570 1572 1574 1577 1579 1581 1585 1588 1589 1591 1592 1593 1593 1595 1595 1595 1595 1594 1594 1594 1593 1593 1592 1591 1589 1587 1585 1583 1581
1478 1480 1488 1491 1500 1512 1521 1527 1532 1536 1545 1550 1554 1560 1568 1573 1572 1575 1576 1578 1581 1585 1588 1589 1591 1592 1593 1594 1595 1595 1595 1594 1594 1593 1592 1592 1591 1589 1588 1587 1584 1582 1579
1472 1481 1489 1494 1499 1507 1518 1522 1527 1533 1536 1545 1551 1555 1561 1565 1568 1571 1573 1575 1578 1582 1585 1587 1589 1591 1592 1592 1594 1594 1594 1593 1593 1592 1591 1590 1589 1588 1586 1585 1583 1580 1577
1468 1474 1478 1488 1498 1503 1514 1520 1524 1530 1534 1538 1546 1551 1555 1557 1561 1567 1569 1571 1575 1578 1582 1584 1585 1589 1590 1590 1592 1593 1592 1592 1591 1590 1590 1589 1588 1587 1585 1583 1580 1578 1575
1465 1470 1477 1484 1489 1492 1506 1514 1520 1526 1530 1537 1539 1546 1551 1553 1556 1559 1559 1565 1570 1574 1578 1581 1583 1584 1586 1588 1590 1590 1591 1590 1589 1588 1587 1587 1586 1585 1583 1581 1578 1576 1574
1459 1466 1471 1477 1483 1485 1490 1502 1514 1519 1524 1531 1538 1543 1548 1548 1553 1555 1556 1559 1565 1570 1574 1576 1580 1581 1583 1584 1587 1588 1589 1588 1587 1586 1585 1585 1584 1582 1581 1579 1576 1574 1571
1449 1457 1464 1471 1475 1481 1484 1492 1503 1512 1518 1525 1532 1540 1545 1549 1552 1554 1555 1555 1560 1565 1569 1572 1575 1577 1580 1580 1584 1585 1585 1586 1585 1584 1582 1582 1581 1579 1577 1576 1573 1570 1567
1440 1450 1457 1464 1470 1475 1482 1483 1494 1504 1512 1520 1527 1535 1540 1544 1549 1551 1553 1553 1556 1561 1565 1568 1570 1573 1576 1576 1579 1582 1583 1583 1582 1581 1580 1579 1578 1576 1574 1572 1569 1566 1562
1434 1442 1449 1457 1464 1469 1476 1480 1486 1494 1503 1511 1521 1529 1535 1540 1545 1548 1549 1551 1554 1557 1561 1565 1566 1569 1572 1574 1576 1578 1579 1579 1579 1578 1577 1576 1574 1573 1571 1568 1565 1561 1557
1426 1435 1442 1450 1457 1463 1469 1476 1482 1486 1493 1503 1513 1522 1529 1534 1540 1544 1546 1549 1552 1555 1559 1562 1563 1565 1568 1571 1572 1573 1575 1575 1576 1575 1573 1572 1570 1568 1566 1563 1561 1557 1552
1420 1427 1434 1442 1450 1456 1461 1468 1475 1480 1489 1494 1503 1512 1521 1528 1534 1539 1541 1545 1548 1553 1556 1558 1560 1562 1565 1566 1567 1569 1570 1573 1571 1571 1570 1568 1566 1564 1562 1559 1556 1552 1546
1413 1420 1428 1434 1442 1448 1454 1459 1466 1473 1480 1486 1494 1504 1512 1521 1528 1533 1536 1540 1545 1549 1552 1555 1556 1559 1561 1562 1563 1564 1566 1567 1567 1566 1565 1564 1561 1560 1557 1553 1550 1546 1541
1406 1414 1420 1426 1433 1439 1445 1452 1458 1467 1473 1480 1486 1496 1505 1513 1519 1526 1531 1535 1541 1545 1548 1551 1553 1555 1556 1557 1559 1560 1562 1562 1562 1561 1560 1559 1557 1555 1552 1548 1545 1540 1536
1398 1405 1412 1418 1425 1432 1438 1446 1451 1458 1466 1473 1480 1491 1499 1507 1513 1521 1525 1530 1534 1539 1542 1545 1548 1550 1552 1553 1553 1555 1556 1556 1556 1555 1554 1553 1552 1550 1547 1543 1540 1534 1531
1392 1398 1405 1412 1417 1423 1429 1436 1444 1451 1458 1466 1475 1487 1492 1502 1510 1517 1521 1524 1528 1532 1536 1538 1543 1546 1545 1548 1548 1549 1551 1550 1549 1548 1549 1547 1546 1545 1543 1538 1534 1529 1525
1384 1390 1395 1402 1407 1414 1422 1429 1436 1442 1450 1459 1468 1481 1488 1496 1503 1510 1516 1519 1523 1526 1530 1533 1536 1538 1541 1543 1542 1543 1544 1545 1544 1544 1542 1541 1539 1539 1536 1533 1528 1523 1519
1378 1382 1387 1393 1400 1407 1414 1422 1428 1435 1441 1451 1463 1474 1482 1488 1496 1503 1508 1512 1517 1520 1524 1527 1529 1531 1535 1535 1536 1538 1539 1538 1537 1537 1535 1531 1531 1530 1529 1527 1522 1518 1512
1370 1374 1380 1386 1393 1399 1405 1413 1420 1428 1437 1447 1455 1466 1476 1484 1490 1497 1502 1506 1511 1513 1518 1521 1523 1526 1527 1527 1530 1531 1533 1532 1530 1530 1529 1524 1523 1521 1521 1521 1517 1513 1508
1363 1368 1375 1380 1386 1391 1399 1406 1415 1423 1431 1440 1449 1460 1470 1479 1486 1491 1495 1499 1504 1506 1511 1514 1517 1518 1520 1521 1523 1525 1526 1525 1524 1524 1523 1520 1517 1514 1513 1515 1512 1508 1502
1358 1363 1368 1374 1379 1385 1392 1401 1409 1416 1424 1434 1445 1454 1463 1471 1477 1482 1488 1493 1495 1499 1504 1506 1510 1513 1514 1515 1517 1519 1520 1520 1520 1519 1518 1516 1514 1512 1505 1505 1506 1502 1498
Wind_Speed
37 35 35 34 32 28 25 25 34 35 32 28 23 18 16 15 16 17 18 16 15 14 13 13 13 13 13 12 12 12 12 12 12 12 12 12 12 12 11 11 11 11 11
41 38 37 35 33 30 28 28 35 35 32 28 24 20 17 16 16 15 17 17 15 14 13 13 12 12 11 11 11 10 11 11 11 11 11 11 10 10 10 10 10 10 9
45 43 39 37 36 34 31 30 33 35 32 28 24 21 19 16 16 16 15 14 14 14 13 12 11 10 9 9 9 9 9 9 10 9 9 9 9 9 9 8 8 8 9
49 46 42 40 39 37 34 32 35 36 33 29 26 22 19 17 17 17 16 14 13 11 11 11 10 10 8 7 7 7 8 7 7 7 7 7 8 8 8 8 9 9 10
55 51 45 41 42 40 36 33 35 35 36 32 28 24 20 18 18 19 18 16 14 13 10 10 9 9 8 6 5 5 5 6 6 6 6 6 7 8 8 9 11 12 13
54 53 48 43 45 43 40 36 36 36 36 36 32 26 22 19 18 18 17 17 15 13 11 10 9 9 8 6 5 4 3 3 4 4 5 6 7 9 10 11 12 14 15
32 53 52 47 47 45 44 40 38 38 37 36 35 29 24 21 19 18 18 17 15 14 13 11 10 9 7 6 5 3 2 1 2 3 5 7 8 10 11 12 13 14 16
37 47 47 51 43 46 45 42 40 41 39 38 35 32 22 21 22 21 20 18 17 16 15 13 11 10 8 6 5 3 3 1 2 3 6 8 9 11 12 14 15 16 17
34 37 31 38 40 44 43 40 39 41 43 41 34 20 14 11 24 24 23 21 20 18 17 15 13 11 10 8 6 5 4 3 3 4 6 8 10 11 13 15 16 18 18
40 38 43 49 30 40 37 38 37 39 41 43 39 31 20 13 18 16 27 24 23 21 20 18 15 14 12 10 8 7 6 5 5 5 7 9 11 13 14 16 17 17 18
46 44 48 50 44 37 40 39 40 42 38 41 41 41 24 18 17 15 21 29 27 25 23 20 18 16 15 12 10 8 8 7 6 6 6 8 12 14 15 16 17 19 20
51 48 44 47 47 47 49 44 40 40 39 39 39 38 36 27 23 18 15 26 30 26 24 21 21 18 17 14 12 10 10 9 8 8 8 10 12 13 15 17 19 21 22
55 49 52 53 53 48 48 51 46 43 41 40 38 39 36 27 19 17 14 13 26 27 26 24 22 19 18 15 14 12 12 11 9 10 9 11 13 14 16 18 20 22 24
52 46 52 53 51 49 50 46 44 42 39 38 37 37 38 33 24 18 15 15 16 24 25 22 22 20 19 15 15 14 13 11 11 11 11 12 15 16 18 21 22 24 26
48 46 49 54 54 52 50 51 49 46 43 38 35 38 39 35 29 22 18 15 11 16 22 20 15 19 18 17 15 14 14 13 13 13 13 14 16 18 20 23 25 26 28
50 51 52 52 56 54 52 51 51 51 50 50 41 41 41 38 33 25 22 18 15 13 13 16 16 13 15 15 15 14 15 15 14 14 15 17 17 20 22 24 27 28 30
50 51 53 54 52 57 57 52 53 54 54 51 45 43 42 41 38 31 25 21 18 17 16 16 15 14 15 14 14 14 15 16 14 16 17 18 19 22 24 26 28 29 31
47 50 52 56 52 56 58 56 56 56 56 50 47 46 44 42 41 37 31 25 21 20 17 16 15 15 15 14 15 15 17 17 17 18 19 20 21 23 25 27 29 29 33
44 46 50 54 54 58 59 59 57 56 59 54 52 47 46 45 42 41 36 31 26 22 20 19 18 18 18 17 17 17 18 19 19 19 20 22 23 24 25 29 29 31 33
44 44 46 47 49 52 52 56 58 59 58 58 53 47 46 45 42 40 38 34 29 26 24 22 22 21 20 20 20 19 21 20 21 22 23 24 24 25 25 28 30 31 34
44 44 46 46 46 49 54 57 60 61 59 56 50 45 43 41 38 37 36 34 31 28 26 25 25 24 23 24 21 21 24 22 23 25 25 26 25 25 26 29 30 32 33
40 41 45 47 49 49 51 53 58 61 59 56 48 42 40 38 37 36 34 31 29 28 26 26 26 27 25 23 22 23 24 24 26 27 27 26 26 27 27 28 30 32 33
37 39 41 44 47 47 48 51 54 61 60 53 47 39 36 36 36 34 33 32 30 29 29 27 29 27 26 23 23 25 24 25 26 28 30 31 29 28 26 26 28 30 30
38 39 40 41 42 43 43 44 48 54 54 50 45 41 38 37 38 38 35 34 32 31 30 28 27 24 24 23 24 23 24 25 27 28 28 31 31 31 27 24 27 26 28
37 39 40 39 41 40 41 40 45 50 49 47 43 39 38 38 40 36 35 33 31 28 29 27 24 21 21 21 22 23 24 25 25 26 26 27 29 29 29 25 23 25 28
36 37 39 38 37 38 39 40 44 50 50 47 44 42 42 44 34 33 33 31 32 31 27 25 24 22 19 21 21 21 22 22 23 25 24 21 24 25 25 21 26 26 25
Wind_Direction
193 191 190 189 193 190 188 175 165 167 168 173 179 181 171 168 168 157 144 142 140 135 132 125 120 116 113 107 103 97 90 82 78 74 67 59 55 49 44 40 37 33 31
200 196 194 194 192 191 188 176 169 171 171 178 182 182 176 172 172 167 158 150 146 142 136 132 126 122 119 114 107 97 89 82 74 69 65 63 60 53 48 42 36 32 29
203 199 197 196 194 190 191 175 171 174 175 180 185 183 177 172 175 173 167 159 155 151 147 140 136 129 121 113 103 95 86 76 71 68 62 56 50 48 47 47 41 34 26
208 201 199 199 195 192 190 180 178 177 181 183 184 184 179 178 176 176 170 166 164 161 158 151 144 137 129 126 117 103 93 83 74 63 58 50 43 39 34 32 28 21 16
212 205 202 201 196 194 195 189 181 185 182 183 186 185 183 181 180 180 178 176 175 171 165 158 156 149 141 138 123 109 97 89 71 54 45 39 36 29 21 16 11 7 2
193 208 202 201 196 196 198 197 188 186 188 185 185 185 185 185 182 184 184 183 183 183 182 176 172 164 160 155 145 137 113 83 70 53 29 22 16 13 10 5 0 358 353
210 197 199 196 197 198 200 200 191 187 188 190 184 183 186 190 192 191 191 191 189 193 192 193 189 183 178 178 166 165 159 107 47 22 11 6 4 2 360 358 355 351 347
209 195 195 193 195 199 199 201 196 186 193 191 187 178 179 193 199 200 198 199 198 200 203 197 205 196 191 196 192 203 216 255 324 345 354 353 353 353 351 349 347 345 345
200 215 220 219 201 203 202 205 202 201 193 193 191 182 168 199 198 206 206 204 207 209 208 207 210 211 203 202 212 225 241 266 289 320 333 339 343 344 346 345 343 343 344
210 216 217 214 226 205 210 210 207 208 205 197 191 197 197 198 183 202 211 209 212 213 213 214 211 218 219 212 217 233 246 260 284 312 322 327 333 338 341 343 344 344 344
213 203 203 205 205 214 209 218 212 210 211 209 203 201 201 195 198 195 202 209 215 213 216 216 216 219 223 224 224 233 248 265 278 290 302 317 326 332 338 340 341 340 342
203 207 216 215 210 209 203 207 216 214 214 211 215 212 212 205 205 204 202 208 216 217 218 217 221 221 225 224 232 235 248 258 271 285 297 313 320 327 330 334 335 336 336
205 209 208 205 206 205 206 204 208 213 213 214 213 220 216 217 223 220 217 209 212 216 218 219 220 223 226 225 235 239 247 259 268 279 292 301 308 313 322 322 327 328 329
204 206 209 206 205 209 205 196 202 208 210 214 216 221 221 218 221 224 223 216 206 214 215 219 218 222 224 224 233 242 250 258 267 273 284 297 301 311 312 315 320 323 324
204 203 208 207 208 208 209 204 205 201 204 210 221 226 221 219 221 223 217 207 201 198 211 216 211 217 222 227 233 241 250 258 262 273 283 290 298 303 307 313 315 319 321
209 205 206 212 211 212 209 212 209 208 213 207 216 223 220 217 218 218 210 208 209 211 205 210 210 211 218 225 232 241 249 257 263 273 282 288 297 300 307 310 314 318 318
213 210 211 209 213 219 214 213 214 213 210 206 211 219 220 216 216 215 211 213 215 216 216 210 212 215 223 225 234 242 255 263 269 277 284 290 295 300 307 308 311 316 316
215 214 214 213 216 220 219 216 214 214 211 207 209 216 217 216 216 217 218 219 220 219 222 225 222 225 229 234 242 251 260 270 273 282 284 291 295 299 303 306 310 314 314
213 216 217 217 220 221 222 219 214 214 211 213 211 214 214 213 214 216 218 219 219 224 228 234 235 236 242 246 253 260 266 272 281 282 287 289 292 297 303 305 310 313 314
212 215 218 221 221 223 223 221 221 216 215 216 213 213 215 216 216 217 217 219 223 229 230 235 240 245 250 255 259 268 274 278 280 285 287 289 293 297 303 305 310 312 315
214 216 218 220 222 223 221 220 220 219 219 217 214 215 216 217 220 222 222 223 225 227 231 236 244 251 256 259 271 278 278 279 283 285 288 291 295 300 304 308 310 311 314
211 214 215 219 217 219 222 224 222 218 218 214 212 214 215 214 217 221 225 226 232 234 236 242 249 252 260 268 275 273 275 281 288 289 289 290 294 298 303 306 308 311 314
212 214 215 216 218 219 222 225 225 223 220 213 209 209 213 214 214 219 224 228 231 235 239 243 246 255 259 267 270 271 274 281 284 284 287 291 295 298 302 307 308 313 313
212 213 214 216 217 217 221 223 224 222 219 214 210 207 213 214 216 221 225 228 230 233 238 245 252 255 258 263 266 269 273 277 281 282 287 291 298 302 305 310 312 314 319
217 215 214 214 215 215 217 220 219 213 209 210 205 206 208 210 218 223 226 229 230 232 236 241 245 250 259 265 270 272 275 277 279 280 285 290 298 301 306 314 315 322 325
218 218 216 215 216 214 213 213 211 208 207 206 207 211 208 218 221 225 225 226 231 232 238 241 244 251 260 267 271 272 271 273 272 278 285 287 297 309 317 316 324 327 325